Total_Precipitation_Accumulation
1.29 1.34 1.45 1.55 1.55 1.52 1.51 1.48 1.59 1.64 1.68 1.70 1.77 1.85 1.86 1.97 2.25 2.55 2.45 2.44 2.48 2.49 2.48 2.64 2.71 2.88 2.93 2.82 2.83 2.87 3.04 3.24 2.98 2.60 2.48 2.41 2.22 2.02 1.95 1.81 1.68 1.66 1.64
1.11 1.20 1.27 1.40 1.43 1.44 1.47 1.59 1.68 1.68 1.64 1.56 1.64 1.71 1.65 1.77 2.06 2.36 2.51 2.62 2.74 2.68 2.70 2.86 2.88 2.91 2.87 2.78 2.82 2.81 2.84 3.11 3.01 2.71 2.64 2.58 2.39 2.12 2.03 1.96 1.68 1.55 1.59
1.02 1.08 1.16 1.31 1.48 1.57 1.62 1.65 1.75 1.79 1.75 1.75 1.78 1.75 1.86 1.98 2.04 2.19 2.35 2.42 2.53 2.60 2.73 2.78 2.74 2.87 2.77 2.75 2.63 2.61 2.66 2.83 3.08 2.88 2.76 2.78 2.70 2.42 2.27 2.09 1.88 1.86 1.56
1.00 1.15 1.26 1.47 1.66 1.73 1.74 1.77 1.78 1.81 1.81 1.85 1.88 1.91 2.00 2.08 2.03 2.09 2.24 2.33 2.40 2.47 2.60 2.69 2.74 2.75 2.77 2.91 2.76 2.74 2.88 3.01 3.12 3.04 2.90 2.97 3.01 2.83 2.61 2.37 2.18 1.99 1.75
1.17 1.37 1.58 1.77 1.81 1.83 1.87 1.87 1.91 1.94 1.84 1.95 2.02 2.00 2.00 1.91 1.82 2.08 2.21 2.21 2.41 2.45 2.44 2.42 2.50 2.74 2.79 2.82 2.60 2.73 2.95 2.96 2.92 2.93 2.88 3.03 3.09 3.01 2.75 2.46 2.29 2.21 2.02
1.54 1.70 1.78 1.84 1.87 1.80 1.78 1.79 1.94 2.00 2.05 2.18 2.21 2.23 2.15 1.88 2.09 2.14 2.16 2.28 2.40 2.40 2.40 2.33 2.25 2.26 2.34 2.46 2.46 2.48 2.62 2.74 2.84 2.86 2.83 2.89 2.94 2.94 2.89 2.69 2.50 2.36 2.20
1.81 1.97 1.95 1.89 1.91 1.88 1.92 1.96 1.97 2.10 2.24 2.28 2.25 2.27 2.23 2.24 2.23 1.98 1.91 1.91 2.01 2.05 2.05 2.05 1.84 1.75 2.07 2.13 2.30 2.28 2.15 2.19 2.29 2.50 2.61 2.59 2.77 2.88 3.02 2.80 2.68 2.50 2.28
1.97 2.05 2.12 2.13 2.20 2.27 2.37 2.39 2.44 2.50 2.56 2.50 2.42 2.44 2.48 2.43 2.44 2.10 1.98 1.86 1.85 1.83 1.80 1.77 1.81 1.80 1.85 2.03 2.12 2.08 1.98 1.93 1.98 1.99 2.08 2.31 2.54 2.83 3.00 2.96 2.97 2.77 2.45
2.13 2.28 2.36 2.41 2.45 2.49 2.52 2.65 2.81 2.96 3.03 2.94 2.88 2.90 2.88 2.93 2.94 2.55 2.38 2.09 1.99 1.88 1.89 1.95 1.98 1.83 1.89 1.94 1.97 1.92 1.87 1.89 1.95 1.98 1.96 2.10 2.32 2.51 2.83 2.90 2.85 2.75 2.45
2.27 2.43 2.62 2.74 2.79 2.78 2.85 3.02 3.21 3.40 3.43 3.43 3.43 3.43 3.36 3.34 3.31 2.88 2.69 2.39 2.31 2.23 2.24 2.11 2.02 1.82 1.76 1.71 1.71 1.75 1.66 1.65 1.84 1.93 1.92 1.96 2.07 2.26 2.56 2.57 2.54 2.63 2.43
2.50 2.62 2.77 2.88 3.01 3.08 3.18 3.29 3.48 3.64 3.62 3.57 3.54 3.51 3.40 3.32 3.20 2.84 2.65 2.43 2.44 2.45 2.32 2.19 2.04 1.89 1.69 1.63 1.57 1.56 1.59 1.68 1.81 1.90 2.02 2.13 2.24 2.34 2.36 2.38 2.43 2.42 2.40
2.75 2.89 2.94 2.95 2.86 2.86 3.12 3.34 3.57 3.80 3.76 3.70 3.73 3.59 3.42 3.29 3.01 2.78 2.57 2.42 2.49 2.53 2.44 2.31 2.17 2.03 1.77 1.68 1.53 1.51 1.59 1.57 1.64 1.77 1.86 1.99 2.09 2.20 2.34 2.47 2.52 2.42 2.29
2.79 2.83 2.94 2.97 2.98 3.05 3.26 3.44 3.64 3.76 3.71 3.60 3.59 3.49 3.30 3.11 2.97 2.71 2.47 2.39 2.43 2.38 2.45 2.55 2.35 2.17 1.94 1.78 1.75 1.74 1.63 1.51 1.64 1.77 1.73 1.78 1.89 2.07 2.38 2.61 2.72 2.72 2.47
2.45 2.48 2.47 2.58 2.74 2.98 3.29 3.38 3.43 3.48 3.52 3.50 3.38 3.25 3.20 3.18 3.11 2.85 2.53 2.28 2.25 2.28 2.33 2.43 2.32 2.16 1.93 1.78 1.81 1.75 1.62 1.59 1.70 1.77 1.79 1.83 1.96 2.08 2.27 2.44 2.65 2.72 2.57
2.12 2.15 2.25 2.36 2.54 2.75 2.98 3.14 3.09 3.12 3.33 3.23 3.00 2.82 2.72 2.65 2.73 2.63 2.35 2.19 2.14 2.23 2.30 2.35 2.29 2.18 2.03 1.89 1.81 1.83 1.84 1.80 1.72 1.72 1.86 1.92 1.94 1.93 1.99 2.16 2.42 2.54 2.41
1.87 1.90 1.94 2.00 2.18 2.35 2.50 2.63 2.65 2.42 2.49 2.41 2.27 2.14 2.02 1.98 1.99 1.86 1.71 1.66 1.74 1.92 2.02 2.17 2.21 2.13 2.04 1.98 1.94 1.93 1.90 1.83 1.75 1.74 1.78 1.83 1.85 1.87 1.90 1.98 2.14 2.32 2.30
1.99 1.95 1.93 1.96 2.08 2.13 2.15 2.20 2.24 2.10 1.96 1.91 1.80 1.65 1.56 1.54 1.53 1.52 1.54 1.56 1.64 1.70 1.71 1.88 1.93 1.92 1.93 1.97 1.97 1.90 1.83 1.80 1.84 1.79 1.72 1.76 1.84 1.87 1.92 2.00 2.05 2.16 2.24
2.29 2.23 2.10 2.04 2.04 1.98 1.97 2.03 2.13 2.14 2.01 1.80 1.61 1.41 1.29 1.29 1.33 1.46 1.64 1.61 1.63 1.63 1.60 1.71 1.72 1.73 1.81 1.89 1.95 1.94 1.86 1.86 1.90 1.86 1.82 1.85 1.96 2.00 1.98 1.99 2.05 2.09 2.18
2.18 2.16 2.04 2.01 2.05 2.14 2.11 2.09 2.16 2.17 2.21 2.10 1.82 1.57 1.45 1.40 1.43 1.56 1.64 1.53 1.57 1.58 1.58 1.67 1.73 1.73 1.78 1.88 1.94 1.98 1.99 2.00 1.99 2.01 1.99 1.97 2.06 2.14 2.04 1.97 2.05 2.20 2.21
1.91 1.97 1.88 1.86 1.87 2.02 2.07 2.04 2.07 2.20 2.21 2.11 1.91 1.63 1.39 1.27 1.26 1.45 1.55 1.64 1.73 1.75 1.77 1.77 1.84 1.87 1.87 1.90 1.93 1.94 2.00 2.04 2.03 2.04 2.07 2.08 2.12 2.15 2.06 2.03 2.05 2.15 2.14
1.66 1.65 1.64 1.65 1.71 1.85 1.96 1.99 1.97 1.97 2.01 1.94 1.78 1.51 1.29 1.17 1.24 1.36 1.50 1.62 1.68 1.72 1.75 1.79 1.85 1.82 1.81 1.87 1.91 1.90 1.98 2.04 2.05 2.06 2.12 2.14 2.10 2.09 2.05 2.06 2.08 2.12 2.18
1.64 1.61 1.48 1.49 1.66 1.75 1.82 1.88 1.82 1.77 1.75 1.73 1.61 1.37 1.24 1.16 1.26 1.40 1.55 1.60 1.63 1.65 1.64 1.66 1.64 1.64 1.66 1.70 1.77 1.81 1.87 1.90 1.90 1.92 2.00 2.06 2.06 2.04 2.05 2.09 2.13 2.19 2.22
1.43 1.53 1.52 1.53 1.63 1.64 1.66 1.79 1.82 1.80 1.79 1.75 1.58 1.43 1.33 1.35 1.42 1.51 1.61 1.62 1.57 1.57 1.58 1.60 1.58 1.55 1.48 1.53 1.61 1.67 1.78 1.84 1.81 1.79 1.84 1.85 1.90 1.92 1.92 1.92 1.94 2.05 2.13
1.14 1.31 1.35 1.34 1.38 1.46 1.56 1.69 1.77 1.74 1.72 1.75 1.66 1.54 1.50 1.56 1.59 1.62 1.64 1.59 1.52 1.54 1.55 1.52 1.46 1.40 1.35 1.41 1.45 1.42 1.41 1.44 1.47 1.54 1.61 1.63 1.70 1.79 1.82 1.84 1.91 1.96 2.06
1.08 1.23 1.21 1.16 1.15 1.25 1.39 1.51 1.55 1.51 1.46 1.43 1.37 1.31 1.33 1.42 1.51 1.52 1.50 1.46 1.42 1.42 1.37 1.32 1.32 1.28 1.22 1.16 1.16 1.13 1.20 1.17 1.13 1.17 1.30 1.44 1.50 1.65 1.79 1.85 1.92 2.02 2.06
1.02 1.10 1.11 1.04 1.01 1.10 1.30 1.42 1.44 1.45 1.45 1.40 1.35 1.32 1.32 1.35 1.33 1.33 1.35 1.35 1.33 1.31 1.27 1.22 1.17 1.11 1.08 1.02 0.98 1.03 1.04 0.99 0.97 1.04 1.07 1.19 1.35 1.48 1.60 1.66 1.71 1.85 1.97